Regional Weather Roundup
Issued by NWS

Home | Current Version | Previous Version | Text Only | Print | Product List | Glossary Off
Versions: 1 2 3 4 5 6 7 8 9 10 11 12 13 14 15 16 17 18 19 20 21 22 23 24 25 26 27

000
ASUS45 KBOU 032207
RWRCO

WEATHER ROUNDUP FOR COLORADO
NATIONAL WEATHER SERVICE DENVER/BOULDER CO
300 PM MST SAT DEC 03 2016

NOTE: "FAIR" INDICATES FEW OR NO CLOUDS BELOW 12000 FEET WITH NO
SIGNIFICANT WEATHER AND/OR OBSTRUCTIONS TO VISIBILITY.

COZ001>005-013-030-031-032300-
...NORTHWEST COLORADO...

CITY           SKY/WX    TMP DP  RH WIND       PRES   REMARKS
CRAIG          CLOUDY    30  11  45 CALM      30.11F
HAYDEN         FAIR      25   9  50 CALM      30.11S
MEEKER         CLOUDY    25  14  63 CALM      30.12F
MOUNT WERNER   NOT AVBL
STEAMBOAT SPGS CLOUDY    23  11  60 CALM      30.10S
WALDEN           N/A     21   9  58 SW14      30.03S WCI   8
$$

COZ006>008-011-032300-
...WEST CENTRAL VALLEYS...

CITY           SKY/WX    TMP DP  RH WIND       PRES   REMARKS
GRAND JUNCTION FAIR      39  17  41 NW7       30.14F
MONTROSE       PTSUNNY   35  17  47 W6        30.15R WCI  30
EAGLE          CLOUDY    34  12  40 W9        30.11F WCI  26
RIFLE          CLOUDY    32  18  56 CALM      30.14F
DELTA          NOT AVBL
NUCLA          NOT AVBL
$$

COZ017>023-064>068-032300-
...SOUTHWEST COLORADO...

CITY           SKY/WX    TMP DP  RH WIND       PRES   REMARKS
DURANGO        FAIR      35  25  66 SW14      30.01F WCI  26
CORTEZ         FAIR      41  17  38 W15       30.06S
PAGOSA SPRINGS PTSUNNY   38  20  49 SW9       30.01S
TELLURIDE      FAIR      27  15  59 W15       30.06R WCI  16
WOLF CREEK PAS SNOW      16  16 100 SW9       30.04S VSB 1/2 WCI   4
$$

COZ009-010-012-014-032>034-037-058>063-032300-
...CENTRAL COLORADO...

CITY           SKY/WX    TMP DP  RH WIND       PRES   REMARKS
ASPEN          CLOUDY    25  12  58 N5        30.08R WCI  19
BUENA VISTA    FAIR      36   9  32 NW13      29.96S
COPPER MTN     CLOUDY    14   9  79 MISG      29.97R
BERTHOUD PASS  CLOUDY     3  -9  55 NW30G40   29.88S WCI -21
COTTONWOOD PAS FAIR      28   7  40 W18G36    29.96R WCI  16
GUNNISON       PTSUNNY   31  11  43 SW12      30.05R WCI  22
KREMMLING      CLOUDY    32  14  47 CALM      30.08F
LEADVILLE      CLOUDY    16   6  65 NW15G24   30.00R WCI   1
SALIDA         FAIR      37  13  37 W10G18    30.05R
SUNLIGHT       CLOUDY    12   9  85 CALM      30.08R
WILKERSON PASS FAIR      21   7  53 W6        29.97R WCI  14
$$

COZ069>075-032300-
...SAN LUIS VALLEY/SANGRE DE CRISTO MOUNTAINS...

CITY           SKY/WX    TMP DP  RH WIND       PRES   REMARKS
ALAMOSA        FAIR      28  20  71 SW7       30.00F WCI  21
LA VETA PASS   PTSUNNY   21  18  86 NE24G32   29.94S WCI   4
SAGUACHE       FAIR      36   5  27 NW16      29.99R
$$

COZ035-036-038>040-032300-
...NORTHERN COLORADO FRONT RANGE...

CITY           SKY/WX    TMP DP  RH WIND       PRES   REMARKS
DENVER INTL AP PTSUNNY   38  14  37 N5        29.95R
DMNS CITY PARK   N/A     40  13  32 N7G13     29.96R
AURORA         PTSUNNY   40   8  26 N7        29.95R
FRONT RANGE AP PTSUNNY   41  18  38 N8        29.96
ERIE MUNI ARPT FAIR      39  18  41 CALM      29.96S
BOULDER MUN AP FAIR      43  16  33 CALM      29.96R
CENTENNIAL     PTSUNNY   41   7  24 NW10      29.94R
BROOMFIELD     PTSUNNY   41  18  38 N9        29.96R
FORT COLLINS   FAIR      37  16  41 W3        29.97R
LONGMONT       FAIR      43  19  39 CALM      29.98R
$$

COZ041-046-047-076>085-087-088-032300-
...PIKES PEAK/PALMER DIVIDE AND SOUTHERN FOOTHILLS...

CITY           SKY/WX    TMP DP  RH WIND       PRES   REMARKS
COLO. SPRINGS  FAIR      42  17  36 SW5       29.93S
A. F. ACADEMY  FAIR      41   9  26 VRB3      29.91S
SCHRIEVER AFB  NOT AVBL
ELLICOTT       FAIR     N/A N/A N/A NE9       29.92R
FALCON         FAIR      39   3  21 N7        29.94R
FORT CARSON    FAIR      43  17  34 E3        29.91S
LIMON          FAIR      42   9  25 N10       29.94R
MONUMENT HILL  FAIR      36   5  27 N7        29.94S
TRINIDAD       FAIR      50  17  27 VRB6      29.89S
$$

COZ042>045-048>051-090-091-032300-
...NORTHEAST COLORADO...

CITY           SKY/WX    TMP DP  RH WIND       PRES   REMARKS
GREELEY ARPT   FAIR      39  20  46 CALM      29.98R
AKRON          CLOUDY    42  17  36 N7        29.95R
BURLINGTON     FAIR      43  23  45 SW7       29.95F
WRAY           NOT AVBL
STERLING       FAIR      46  14  27 NW10      29.94S
HOLYOKE        FAIR      46  14  27 NW5       29.96S
FORT MORGAN    FAIR      38  19  44 W5        29.97S
$$

COZ086-089-092>099-032300-
...SOUTHEAST COLORADO...

CITY           SKY/WX    TMP DP  RH WIND       PRES   REMARKS
PUEBLO         FAIR      45  19  35 CALM      29.92S
LA JUNTA       FAIR      47  21  35 N8        29.93R
LAMAR          FAIR      45  29  53 E7        29.93S
SPRINGFIELD      N/A     40  30  67 SW5       29.92S
$$




USA.gov is the U.S. government's official web portal to all federal, state and local government web resources and services.